When you browse on this site, cookies collect data to enhance your experience and personalize the content and advertising you see.
Visit our Privacy Policy to learn more. By continuing to use the site, you agree to this use of cookies and data.
  • In Hungary
  • List of Countries
  • For 7 days
  • Water Temperature
  • Weather Map
  • News
  • Weather Widgets
  • user-avatar
    Login

    Hourly Weather Nowoszyce

    Today, 15 December, Sunday

    Time Temperature Precipitation Wind Pressure Humidity
    00:00 +2°C° 0.1 mm 5 mps 737 mmHg 81%
    01:00 +2°C° 0.1 mm 6 mps 737 mmHg 81%
    02:00 +2°C° 0.1 mm 6 mps 738 mmHg 78%
    03:00 +2°C° 0.1 mm 6 mps 738 mmHg 75%
    04:00 +2°C° 0.1 mm 6 mps 739 mmHg 72%
    05:00 +1°C° 0 mm 5 mps 739 mmHg 74%
    06:00 +1°C° 0 mm 4 mps 740 mmHg 76%
    07:00 0°C° 0 mm 4 mps 740 mmHg 78%
    08:00 +1°C° 0 mm 5 mps 740 mmHg 76%
    09:00 +2°C° 0 mm 6 mps 740 mmHg 74%
    10:00 +3°C° 0 mm 6 mps 740 mmHg 73%
    11:00 +4°C° 0.5 mm 7 mps 739 mmHg 74%
    12:00 +5°C° 0.5 mm 7 mps 739 mmHg 76%
    13:00 +6°C° 0.5 mm 7 mps 738 mmHg 78%
    14:00 +6°C° 0.1 mm 7 mps 738 mmHg 79%
    15:00 +7°C° 0.1 mm 6 mps 739 mmHg 81%
    16:00 +8°C° 0.1 mm 6 mps 739 mmHg 82%
    17:00 +8°C° 0.2 mm 5 mps 740 mmHg 83%
    18:00 +7°C° 0.2 mm 5 mps 741 mmHg 83%
    19:00 +7°C° 0.2 mm 4 mps 742 mmHg 84%
    20:00 +7°C° 0 mm 4 mps 743 mmHg 84%
    21:00 +6°C° 0 mm 4 mps 743 mmHg 83%
    22:00 +7°C° 0 mm 3 mps 744 mmHg 83%
    23:00 +7°C° 0 mm 3 mps 744 mmHg 82%

    Tomorrow, 16 December, Monday

    Time Temperature Precipitation Wind Pressure Humidity
    00:00 +7°C° 0 mm 3 mps 745 mmHg 80%
    01:00 +7°C° 0 mm 3 mps 745 mmHg 79%
    02:00 +5°C° 0 mm 3 mps 745 mmHg 82%
    03:00 +6°C° 0 mm 2 mps 746 mmHg 84%
    04:00 +6°C° 0 mm 2 mps 746 mmHg 86%
    05:00 +6°C° 0 mm 2 mps 746 mmHg 87%
    06:00 +5°C° 0 mm 2 mps 746 mmHg 88%
    07:00 +5°C° 0 mm 2 mps 746 mmHg 88%
    08:00 +6°C° 0 mm 2 mps 747 mmHg 86%
    09:00 +6°C° 0 mm 2 mps 747 mmHg 84%
    10:00 +7°C° 0 mm 2 mps 747 mmHg 82%
    11:00 +8°C° 0 mm 3 mps 747 mmHg 79%
    12:00 +8°C° 0 mm 3 mps 746 mmHg 76%
    13:00 +9°C° 0 mm 3 mps 746 mmHg 73%
    14:00 +8°C° 0 mm 3 mps 746 mmHg 76%
    15:00 +8°C° 0 mm 3 mps 746 mmHg 79%
    16:00 +7°C° 0 mm 3 mps 746 mmHg 81%
    17:00 +7°C° 0 mm 3 mps 746 mmHg 83%
    18:00 +7°C° 0 mm 3 mps 745 mmHg 85%
    19:00 +5°C° 0 mm 4 mps 745 mmHg 87%
    20:00 +5°C° 0 mm 3 mps 745 mmHg 87%
    21:00 +5°C° 0 mm 3 mps 745 mmHg 88%
    22:00 +5°C° 0 mm 3 mps 745 mmHg 89%
    23:00 +5°C° 0 mm 3 mps 745 mmHg 89%

    Day after tomorrow, 17 December, Tuesday

    Time Temperature Precipitation Wind Pressure Humidity
    00:00 +5°C° 0 mm 3 mps 744 mmHg 90%
    01:00 +5°C° 0 mm 3 mps 744 mmHg 90%
    02:00 +5°C° 0 mm 3 mps 744 mmHg 90%
    03:00 +5°C° 0 mm 3 mps 744 mmHg 90%
    04:00 +5°C° 0 mm 3 mps 744 mmHg 90%
    05:00 +6°C° 0 mm 2 mps 744 mmHg 90%
    06:00 +5°C° 0 mm 2 mps 744 mmHg 90%
    07:00 +5°C° 0 mm 2 mps 744 mmHg 90%
    08:00 +6°C° 0 mm 2 mps 744 mmHg 88%
    09:00 +6°C° 0 mm 2 mps 744 mmHg 87%
    10:00 +7°C° 0 mm 3 mps 744 mmHg 86%
    11:00 +8°C° 0 mm 3 mps 744 mmHg 84%
    12:00 +8°C° 0 mm 3 mps 744 mmHg 82%
    13:00 +9°C° 0 mm 3 mps 743 mmHg 79%
    14:00 +8°C° 0 mm 3 mps 743 mmHg 82%
    15:00 +8°C° 0 mm 3 mps 743 mmHg 85%
    16:00 +7°C° 0 mm 2 mps 744 mmHg 87%
    17:00 +7°C° 0 mm 2 mps 744 mmHg 88%
    18:00 +7°C° 0 mm 2 mps 744 mmHg 89%
    19:00 +7°C° 0 mm 2 mps 744 mmHg 90%
    20:00 +6°C° 0 mm 2 mps 744 mmHg 90%
    21:00 +6°C° 0 mm 2 mps 744 mmHg 91%
    22:00 +6°C° 0 mm 2 mps 744 mmHg 91%
    23:00 +5°C° 0 mm 2 mps 745 mmHg 91%

    18 December, Wednesday

    Time Temperature Precipitation Wind Pressure Humidity
    00:00 +5°C° 0 mm 2 mps 745 mmHg 92%
    01:00 +6°C° 0 mm 1 mps 745 mmHg 92%
    02:00 +5°C° 0 mm 2 mps 745 mmHg 91%
    03:00 +5°C° 0 mm 2 mps 745 mmHg 91%
    04:00 +5°C° 0 mm 2 mps 745 mmHg 90%
    05:00 +5°C° 0 mm 2 mps 745 mmHg 89%
    06:00 +5°C° 0 mm 2 mps 745 mmHg 89%
    07:00 +5°C° 0 mm 2 mps 745 mmHg 88%
    08:00 +5°C° 0 mm 2 mps 746 mmHg 85%
    09:00 +5°C° 0 mm 3 mps 746 mmHg 82%
    10:00 +7°C° 0 mm 3 mps 746 mmHg 79%
    11:00 +8°C° 0 mm 3 mps 746 mmHg 76%
    12:00 +9°C° 0 mm 3 mps 746 mmHg 72%
    13:00 +10°C° 0 mm 3 mps 746 mmHg 68%
    14:00 +9°C° 0 mm 2 mps 746 mmHg 72%
    15:00 +9°C° 0 mm 2 mps 746 mmHg 76%
    16:00 +8°C° 0 mm 2 mps 746 mmHg 81%
    17:00 +7°C° 0 mm 2 mps 746 mmHg 82%
    18:00 +8°C° 0 mm 1 mps 746 mmHg 83%
    19:00 +7°C° 0 mm 1 mps 746 mmHg 84%
    20:00 +7°C° 0 mm 1 mps 746 mmHg 85%
    21:00 +6°C° 0 mm 0 mps 747 mmHg 85%
    22:00 +6°C° 0 mm 0 mps 747 mmHg 86%
    23:00 +5°C° 0 mm 0 mps 746 mmHg 87%

    19 December, Thursday

    Time Temperature Precipitation Wind Pressure Humidity
    00:00 +6°C° 0 mm 1 mps 746 mmHg 87%
    01:00 +6°C° 0 mm 1 mps 746 mmHg 88%
    02:00 +6°C° 0 mm 1 mps 746 mmHg 89%
    03:00 +6°C° 0 mm 1 mps 745 mmHg 90%
    04:00 +6°C° 0 mm 1 mps 745 mmHg 91%
    05:00 +6°C° 0 mm 1 mps 745 mmHg 91%
    06:00 +6°C° 0 mm 1 mps 745 mmHg 91%
    07:00 +6°C° 0 mm 1 mps 745 mmHg 92%
    08:00 +7°C° 0 mm 1 mps 745 mmHg 91%
    09:00 +7°C° 0 mm 1 mps 745 mmHg 91%
    10:00 +7°C° 0 mm 1 mps 745 mmHg 90%
    11:00 +8°C° 0 mm 1 mps 745 mmHg 89%
    12:00 +9°C° 0 mm 1 mps 744 mmHg 87%
    13:00 +9°C° 0 mm 1 mps 744 mmHg 85%
    14:00 +9°C° 0 mm 1 mps 744 mmHg 87%
    15:00 +8°C° 0 mm 1 mps 744 mmHg 89%
    16:00 +7°C° 0 mm 2 mps 744 mmHg 91%
    17:00 +7°C° 0 mm 2 mps 743 mmHg 91%
    18:00 +7°C° 0 mm 2 mps 743 mmHg 90%
    19:00 +7°C° 0 mm 2 mps 743 mmHg 89%
    20:00 +8°C° 0.1 mm 2 mps 743 mmHg 89%
    21:00 +8°C° 0.1 mm 2 mps 742 mmHg 88%
    22:00 +8°C° 0.1 mm 3 mps 742 mmHg 88%
    23:00 +8°C° 0.5 mm 3 mps 742 mmHg 90%

    20 December, Friday

    Time Temperature Precipitation Wind Pressure Humidity
    00:00 +8°C° 0.5 mm 3 mps 741 mmHg 92%
    01:00 +7°C° 0.5 mm 4 mps 741 mmHg 93%
    02:00 +6°C° 0 mm 4 mps 741 mmHg 92%
    03:00 +6°C° 0 mm 4 mps 740 mmHg 91%
    04:00 +6°C° 0 mm 4 mps 740 mmHg 90%
    05:00 +6°C° 0 mm 4 mps 740 mmHg 90%
    06:00 +6°C° 0 mm 4 mps 739 mmHg 90%
    07:00 +5°C° 0 mm 3 mps 739 mmHg 90%
    08:00 +7°C° 0 mm 3 mps 739 mmHg 88%
    09:00 +7°C° 0 mm 3 mps 739 mmHg 86%
    10:00 +8°C° 0 mm 3 mps 739 mmHg 83%
    11:00 +7°C° 0 mm 4 mps 738 mmHg 79%
    12:00 +8°C° 0 mm 4 mps 738 mmHg 75%
    13:00 +10°C° 0 mm 4 mps 738 mmHg 71%
    14:00 +10°C° 0 mm 4 mps 737 mmHg 71%
    15:00 +10°C° 0 mm 4 mps 737 mmHg 72%
    16:00 +8°C° 0 mm 4 mps 736 mmHg 72%
    17:00 +8°C° 0 mm 5 mps 736 mmHg 74%
    18:00 +8°C° 0 mm 5 mps 736 mmHg 75%
    19:00 +8°C° 0 mm 6 mps 735 mmHg 77%
    20:00 +8°C° 0 mm 6 mps 735 mmHg 76%
    21:00 +8°C° 0 mm 6 mps 735 mmHg 76%
    22:00 +8°C° 0 mm 6 mps 734 mmHg 75%
    23:00 +8°C° 0 mm 6 mps 734 mmHg 74%
    Show more